{"data":{"norad_id":60392,"epoch":"2026-05-25T03:01:17.710752Z","epoch_age_seconds":71071,"freshness":"FRESH","line1":"1 60392U 24140P   26145.12589943  .00000075  00000+0  97831-4 0  9993","line2":"2 60392  88.9688 282.3131 0018709  97.3130 263.0148 13.51009334 89333","mean_motion":13.51009334,"eccentricity":0.0018709,"inclination_deg":88.9688,"raan_deg":282.3131,"arg_perigee_deg":97.313,"mean_anomaly_deg":263.0148,"bstar":9.7831e-5,"rev_number":8933,"period_min":106.58697640056,"perigee_km":1054.6152844428,"apogee_km":1082.4792877045,"semimajor_km":7446.6842860736,"source":"CELESTRAK","updated_at":"2026-05-25T13:38:02.043038Z"}}